This is the latest recevied weather packets stored in our database for station/object IW3HBX-3. If no packets are shown the sender has not sent any weather packets the latest 1 day(s).
| Time | Temp. | Humidity | Pressure | Rain* | Wind** | Luminosity | Snow |
|---|---|---|---|---|---|---|---|
| 1777958692 | 16.11° C | 86% | 1014 hPa | 0 mm | 2.24 m/s, 63° | 96 W/m² | - |
| 1777958392 | 16.11° C | 86% | 1014 hPa | 0 mm | 1.79 m/s, 67° | 103 W/m² | - |
| 1777958092 | 16.11° C | 86% | 1014 hPa | 0 mm | 1.34 m/s, 64° | 112 W/m² | - |
| 1777957793 | 16.11° C | 87% | 1014 hPa | 0 mm | 1.79 m/s, 68° | 101 W/m² | - |
| 1777957493 | 16.11° C | 87% | 1014 hPa | 0 mm | 1.34 m/s, 61° | 95 W/m² | - |
| 1777957193 | 16.11° C | 88% | 1014.1 hPa | 0 mm | 1.34 m/s, 60° | 82 W/m² | - |
| 1777956893 | 16.11° C | 88% | 1014 hPa | 0 mm | 0.89 m/s, 73° | 54 W/m² | - |
| 1777956593 | 16.11° C | 89% | 1014 hPa | 0 mm | 1.34 m/s, 75° | 41 W/m² | - |
| 1777956293 | 16.11° C | 89% | 1014 hPa | 0 mm | 1.34 m/s, 64° | 24 W/m² | - |
| 1777955993 | 16.11° C | 90% | 1014 hPa | 0 mm | 0.89 m/s, 65° | 22 W/m² | - |
| 1777955693 | 16.11° C | 90% | 1014 hPa | 0 mm | 0.89 m/s, 72° | 20 W/m² | - |
| 1777955393 | 16.11° C | 91% | 1014.1 hPa | 0 mm | 1.34 m/s, 73° | 14 W/m² | - |
| 1777955093 | 15.56° C | 91% | 1014.1 hPa | 0 mm | 1.34 m/s, 61° | 9 W/m² | - |
| 1777954793 | 15.56° C | 91% | 1014 hPa | 0 mm | 1.34 m/s, 68° | 6 W/m² | - |
| 1777954493 | 15.56° C | 91% | 1014 hPa | 0 mm | 1.79 m/s, 63° | 4 W/m² | - |
| 1777954194 | 15.56° C | 92% | 1014 hPa | 0 mm | 1.79 m/s, 64° | 3 W/m² | - |
| 1777953894 | 15.56° C | 92% | 1014 hPa | 0 mm | 2.24 m/s, 64° | 2 W/m² | - |
| 1777953594 | 15.56° C | 92% | 1014 hPa | 0 mm | 1.34 m/s, 61° | 2 W/m² | - |
| 1777953294 | 15.56° C | 92% | 1014 hPa | 0 mm | 1.79 m/s, 55° | 1 W/m² | - |
| 1777952994 | 15.56° C | 92% | 1014.1 hPa | 0 mm | 1.34 m/s, 66° | 1 W/m² | - |
| 1777952694 | 15.56° C | 93% | 1014.1 hPa | 0 mm | 2.24 m/s, 61° | 0 W/m² | - |
| 1777952394 | 15.56° C | 93% | 1013.9 hPa | 0 mm | 1.34 m/s, 65° | 0 W/m² | - |
| 1777952094 | 15.56° C | 93% | 1014 hPa | 0 mm | 0.89 m/s, 56° | 0 W/m² | - |
| 1777951794 | 15.56° C | 93% | 1014 hPa | 0 mm | 1.34 m/s, 62° | 0 W/m² | - |
| 1777951494 | 15.56° C | 93% | 1014.1 hPa | 0 mm | 1.79 m/s, 58° | 0 W/m² | - |
* Rain latest hour (hover to see other rain measurements)
** Current wind speed in m/s (hover to see current wind gust speed)